カタログに戻る

KUIPER-00120

運用中通信LEO
NORAD 65762·PAYLOAD·🇺🇸 United States

打ち上げ Sep 25, 2025 から Cape Canaveral Space Force Station

Loading…

次のパス (今後24時間)

TLE

最新Source: CelesTrak SupGP

元期: Sep 14, 2026, 20:33 UTC

1 65762C 25217A   26257.85675926  .00000526  00000+0  68852-4 0  2575
2 65762  51.8979 296.5525 0000457  69.5412 107.5436 14.79927810    19

AllMySatでKUIPER-00120をリアルタイム追跡

Download on the App Store